<?xml version="1.0" encoding="UTF-8" standalone="no" ?>
<gpx xmlns="http://www.topografix.com/GPX/1/1" xmlns:xsi="http://www.w3.org/2001/XMLSchema-instance" xsi:schemaLocation="http://www.topografix.com/GPX/1/1 http://www.topografix.com/GPX/1/1/gpx.xsd" version="1.1" creator="VisuGPX - https://www.visugpx.com">
  <metadata>
    <name>Saint Quentin Fallavier - Montélimar</name>
    <desc><![CDATA[étape 3/4 de Besançon - Grau du Roi méditerranée]]></desc>
  </metadata>
  <trk>
    <name><![CDATA[Import from KML]]></name>
    <trkseg>
      <trkpt lat="45.65611" lon="5.11558">
        <ele>224.1</ele>
        <time>2012-07-16T09:13:23Z</time>
      </trkpt>
      <trkpt lat="45.65417" lon="5.11506">
        <ele>226.8</ele>
        <time>2012-07-16T09:13:23Z</time>
      </trkpt>
      <trkpt lat="45.6523" lon="5.11851">
        <ele>226.7</ele>
        <time>2012-07-16T09:13:23Z</time>
      </trkpt>
      <trkpt lat="45.64385" lon="5.10505">
        <ele>240</ele>
        <time>2012-07-16T09:13:23Z</time>
      </trkpt>
      <trkpt lat="45.63991" lon="5.10904">
        <ele>237.8</ele>
        <time>2012-07-16T09:13:23Z</time>
      </trkpt>
      <trkpt lat="45.63881" lon="5.10819">
        <ele>238.9</ele>
        <time>2012-07-16T09:13:23Z</time>
      </trkpt>
      <trkpt lat="45.63748" lon="5.10823">
        <ele>241</ele>
        <time>2012-07-16T09:13:23Z</time>
      </trkpt>
      <trkpt lat="45.63636" lon="5.10824">
        <ele>242</ele>
        <time>2012-07-16T09:13:23Z</time>
      </trkpt>
      <trkpt lat="45.63476" lon="5.10851">
        <ele>243.9</ele>
        <time>2012-07-16T09:13:23Z</time>
      </trkpt>
      <trkpt lat="45.63369" lon="5.11182">
        <ele>250.4</ele>
        <time>2012-07-16T09:13:23Z</time>
      </trkpt>
      <trkpt lat="45.63258" lon="5.11101">
        <ele>258.4</ele>
        <time>2012-07-16T09:13:23Z</time>
      </trkpt>
      <trkpt lat="45.6311" lon="5.11207">
        <ele>264.1</ele>
        <time>2012-07-16T09:13:23Z</time>
      </trkpt>
      <trkpt lat="45.62975" lon="5.11385">
        <ele>272.8</ele>
        <time>2012-07-16T09:13:23Z</time>
      </trkpt>
      <trkpt lat="45.62774" lon="5.11531">
        <ele>279.5</ele>
        <time>2012-07-16T09:13:23Z</time>
      </trkpt>
      <trkpt lat="45.62555" lon="5.1179">
        <ele>293.1</ele>
        <time>2012-07-16T09:13:23Z</time>
      </trkpt>
      <trkpt lat="45.62377" lon="5.11822">
        <ele>287</ele>
        <time>2012-07-16T09:13:23Z</time>
      </trkpt>
      <trkpt lat="45.62151" lon="5.12017">
        <ele>281.1</ele>
        <time>2012-07-16T09:13:23Z</time>
      </trkpt>
      <trkpt lat="45.61895" lon="5.11973">
        <ele>291.7</ele>
        <time>2012-07-16T09:13:23Z</time>
      </trkpt>
      <trkpt lat="45.6171" lon="5.12199">
        <ele>302.6</ele>
        <time>2012-07-16T09:13:23Z</time>
      </trkpt>
      <trkpt lat="45.61602" lon="5.12162">
        <ele>309.4</ele>
        <time>2012-07-16T09:13:23Z</time>
      </trkpt>
      <trkpt lat="45.61497" lon="5.12216">
        <ele>308.1</ele>
        <time>2012-07-16T09:13:23Z</time>
      </trkpt>
      <trkpt lat="45.61345" lon="5.12181">
        <ele>317.4</ele>
        <time>2012-07-16T09:13:23Z</time>
      </trkpt>
      <trkpt lat="45.61034" lon="5.12352">
        <ele>334.7</ele>
        <time>2012-07-16T09:13:23Z</time>
      </trkpt>
      <trkpt lat="45.60621" lon="5.12474">
        <ele>353</ele>
        <time>2012-07-16T09:13:23Z</time>
      </trkpt>
      <trkpt lat="45.60338" lon="5.12465">
        <ele>330.5</ele>
        <time>2012-07-16T09:13:23Z</time>
      </trkpt>
      <trkpt lat="45.60253" lon="5.12424">
        <ele>312.9</ele>
        <time>2012-07-16T09:13:23Z</time>
      </trkpt>
      <trkpt lat="45.60042" lon="5.12516">
        <ele>312.8</ele>
        <time>2012-07-16T09:13:23Z</time>
      </trkpt>
      <trkpt lat="45.59841" lon="5.12785">
        <ele>321.5</ele>
        <time>2012-07-16T09:13:23Z</time>
      </trkpt>
      <trkpt lat="45.59399" lon="5.13042">
        <ele>326.9</ele>
        <time>2012-07-16T09:13:23Z</time>
      </trkpt>
      <trkpt lat="45.59018" lon="5.13097">
        <ele>333.6</ele>
        <time>2012-07-16T09:13:23Z</time>
      </trkpt>
      <trkpt lat="45.58981" lon="5.13041">
        <ele>333.8</ele>
        <time>2012-07-16T09:13:23Z</time>
      </trkpt>
      <trkpt lat="45.587" lon="5.13064">
        <ele>355.3</ele>
        <time>2012-07-16T09:13:23Z</time>
      </trkpt>
      <trkpt lat="45.58513" lon="5.1301">
        <ele>365.2</ele>
        <time>2012-07-16T09:13:23Z</time>
      </trkpt>
      <trkpt lat="45.58378" lon="5.12821">
        <ele>377.4</ele>
        <time>2012-07-16T09:13:23Z</time>
      </trkpt>
      <trkpt lat="45.58335" lon="5.12488">
        <ele>392.1</ele>
        <time>2012-07-16T09:13:23Z</time>
      </trkpt>
      <trkpt lat="45.58142" lon="5.12217">
        <ele>388</ele>
        <time>2012-07-16T09:13:23Z</time>
      </trkpt>
      <trkpt lat="45.57903" lon="5.1147">
        <ele>378</ele>
        <time>2012-07-16T09:13:23Z</time>
      </trkpt>
      <trkpt lat="45.57698" lon="5.11137">
        <ele>373.1</ele>
        <time>2012-07-16T09:13:23Z</time>
      </trkpt>
      <trkpt lat="45.57558" lon="5.11002">
        <ele>372</ele>
        <time>2012-07-16T09:13:23Z</time>
      </trkpt>
      <trkpt lat="45.57088" lon="5.09995">
        <ele>354.7</ele>
        <time>2012-07-16T09:13:23Z</time>
      </trkpt>
      <trkpt lat="45.56785" lon="5.0974">
        <ele>365.8</ele>
        <time>2012-07-16T09:13:23Z</time>
      </trkpt>
      <trkpt lat="45.56621" lon="5.0979">
        <ele>374</ele>
        <time>2012-07-16T09:13:23Z</time>
      </trkpt>
      <trkpt lat="45.56295" lon="5.09533">
        <ele>379.1</ele>
        <time>2012-07-16T09:13:23Z</time>
      </trkpt>
      <trkpt lat="45.55968" lon="5.09754">
        <ele>375.1</ele>
        <time>2012-07-16T09:13:23Z</time>
      </trkpt>
      <trkpt lat="45.55391" lon="5.09803">
        <ele>364.2</ele>
        <time>2012-07-16T09:13:23Z</time>
      </trkpt>
      <trkpt lat="45.55012" lon="5.09509">
        <ele>358.6</ele>
        <time>2012-07-16T09:13:23Z</time>
      </trkpt>
      <trkpt lat="45.54448" lon="5.09478">
        <ele>351.7</ele>
        <time>2012-07-16T09:13:23Z</time>
      </trkpt>
      <trkpt lat="45.52471" lon="5.08429">
        <ele>341</ele>
        <time>2012-07-16T09:13:23Z</time>
      </trkpt>
      <trkpt lat="45.52295" lon="5.07714">
        <ele>331.3</ele>
        <time>2012-07-16T09:13:23Z</time>
      </trkpt>
      <trkpt lat="45.51751" lon="5.07343">
        <ele>324</ele>
        <time>2012-07-16T09:13:23Z</time>
      </trkpt>
      <trkpt lat="45.51083" lon="5.0705">
        <ele>314</ele>
        <time>2012-07-16T09:13:23Z</time>
      </trkpt>
      <trkpt lat="45.50966" lon="5.06851">
        <ele>311</ele>
        <time>2012-07-16T09:13:23Z</time>
      </trkpt>
      <trkpt lat="45.50682" lon="5.06386">
        <ele>306.9</ele>
        <time>2012-07-16T09:13:23Z</time>
      </trkpt>
      <trkpt lat="45.50276" lon="5.06041">
        <ele>301.1</ele>
        <time>2012-07-16T09:13:23Z</time>
      </trkpt>
      <trkpt lat="45.49513" lon="5.04183">
        <ele>288</ele>
        <time>2012-07-16T09:13:23Z</time>
      </trkpt>
      <trkpt lat="45.48774" lon="5.03358">
        <ele>279.7</ele>
        <time>2012-07-16T09:13:23Z</time>
      </trkpt>
      <trkpt lat="45.4837" lon="5.02677">
        <ele>279.6</ele>
        <time>2012-07-16T09:13:23Z</time>
      </trkpt>
      <trkpt lat="45.48294" lon="5.02147">
        <ele>284.3</ele>
        <time>2012-07-16T09:13:23Z</time>
      </trkpt>
      <trkpt lat="45.48407" lon="5.01753">
        <ele>279.8</ele>
        <time>2012-07-16T09:13:23Z</time>
      </trkpt>
      <trkpt lat="45.48419" lon="5.01255">
        <ele>278.7</ele>
        <time>2012-07-16T09:13:23Z</time>
      </trkpt>
      <trkpt lat="45.48293" lon="5.00951">
        <ele>300.7</ele>
        <time>2012-07-16T09:13:23Z</time>
      </trkpt>
      <trkpt lat="45.48148" lon="5.00847">
        <ele>306.7</ele>
        <time>2012-07-16T09:13:23Z</time>
      </trkpt>
      <trkpt lat="45.48169" lon="5.00722">
        <ele>300.5</ele>
        <time>2012-07-16T09:13:23Z</time>
      </trkpt>
      <trkpt lat="45.48207" lon="5.0053">
        <ele>286.6</ele>
        <time>2012-07-16T09:13:23Z</time>
      </trkpt>
      <trkpt lat="45.48062" lon="5.00115">
        <ele>261</ele>
        <time>2012-07-16T09:13:23Z</time>
      </trkpt>
      <trkpt lat="45.47872" lon="5.00017">
        <ele>258.5</ele>
        <time>2012-07-16T09:13:23Z</time>
      </trkpt>
      <trkpt lat="45.47726" lon="4.99862">
        <ele>258</ele>
        <time>2012-07-16T09:13:23Z</time>
      </trkpt>
      <trkpt lat="45.47586" lon="4.99846">
        <ele>259.9</ele>
        <time>2012-07-16T09:13:23Z</time>
      </trkpt>
      <trkpt lat="45.47366" lon="4.99943">
        <ele>264.9</ele>
        <time>2012-07-16T09:13:23Z</time>
      </trkpt>
      <trkpt lat="45.47217" lon="5.00086">
        <ele>273.6</ele>
        <time>2012-07-16T09:13:23Z</time>
      </trkpt>
      <trkpt lat="45.47026" lon="5.00258">
        <ele>291.5</ele>
        <time>2012-07-16T09:13:23Z</time>
      </trkpt>
      <trkpt lat="45.4708" lon="4.9993">
        <ele>306.1</ele>
        <time>2012-07-16T09:13:23Z</time>
      </trkpt>
      <trkpt lat="45.46926" lon="4.99801">
        <ele>318.6</ele>
        <time>2012-07-16T09:13:23Z</time>
      </trkpt>
      <trkpt lat="45.46759" lon="4.99876">
        <ele>331.6</ele>
        <time>2012-07-16T09:13:23Z</time>
      </trkpt>
      <trkpt lat="45.46765" lon="5.00097">
        <ele>343.9</ele>
        <time>2012-07-16T09:13:23Z</time>
      </trkpt>
      <trkpt lat="45.46678" lon="5.00152">
        <ele>352.7</ele>
        <time>2012-07-16T09:13:23Z</time>
      </trkpt>
      <trkpt lat="45.46613" lon="5.00302">
        <ele>363.1</ele>
        <time>2012-07-16T09:13:23Z</time>
      </trkpt>
      <trkpt lat="45.4625" lon="5.00125">
        <ele>399.9</ele>
        <time>2012-07-16T09:13:23Z</time>
      </trkpt>
      <trkpt lat="45.45987" lon="4.99967">
        <ele>418.2</ele>
        <time>2012-07-16T09:13:23Z</time>
      </trkpt>
      <trkpt lat="45.45837" lon="4.99974">
        <ele>430.6</ele>
        <time>2012-07-16T09:13:23Z</time>
      </trkpt>
      <trkpt lat="45.45479" lon="4.99611">
        <ele>419.2</ele>
        <time>2012-07-16T09:13:23Z</time>
      </trkpt>
      <trkpt lat="45.45128" lon="4.99541">
        <ele>401.9</ele>
        <time>2012-07-16T09:13:23Z</time>
      </trkpt>
      <trkpt lat="45.44879" lon="4.99384">
        <ele>382.3</ele>
        <time>2012-07-16T09:13:23Z</time>
      </trkpt>
      <trkpt lat="45.44661" lon="4.99334">
        <ele>370</ele>
        <time>2012-07-16T09:13:23Z</time>
      </trkpt>
      <trkpt lat="45.44511" lon="4.99476">
        <ele>361.9</ele>
        <time>2012-07-16T09:13:23Z</time>
      </trkpt>
      <trkpt lat="45.44379" lon="5.00012">
        <ele>338.3</ele>
        <time>2012-07-16T09:13:23Z</time>
      </trkpt>
      <trkpt lat="45.44076" lon="5.00458">
        <ele>342.9</ele>
        <time>2012-07-16T09:13:23Z</time>
      </trkpt>
      <trkpt lat="45.43879" lon="5.00507">
        <ele>352</ele>
        <time>2012-07-16T09:13:23Z</time>
      </trkpt>
      <trkpt lat="45.43445" lon="5.00733">
        <ele>377.7</ele>
        <time>2012-07-16T09:13:23Z</time>
      </trkpt>
      <trkpt lat="45.42999" lon="5.01203">
        <ele>399.4</ele>
        <time>2012-07-16T09:13:23Z</time>
      </trkpt>
      <trkpt lat="45.42665" lon="5.01177">
        <ele>422.6</ele>
        <time>2012-07-16T09:13:23Z</time>
      </trkpt>
      <trkpt lat="45.41858" lon="5.01546">
        <ele>461.1</ele>
        <time>2012-07-16T09:13:23Z</time>
      </trkpt>
      <trkpt lat="45.40898" lon="5.01637">
        <ele>451.3</ele>
        <time>2012-07-16T09:13:23Z</time>
      </trkpt>
      <trkpt lat="45.40219" lon="5.02132">
        <ele>405.7</ele>
        <time>2012-07-16T09:13:23Z</time>
      </trkpt>
      <trkpt lat="45.39944" lon="5.02295">
        <ele>384.6</ele>
        <time>2012-07-16T09:13:23Z</time>
      </trkpt>
      <trkpt lat="45.39423" lon="5.02327">
        <ele>355</ele>
        <time>2012-07-16T09:13:23Z</time>
      </trkpt>
      <trkpt lat="45.39072" lon="5.02293">
        <ele>338.4</ele>
        <time>2012-07-16T09:13:23Z</time>
      </trkpt>
      <trkpt lat="45.36339" lon="5.02917">
        <ele>312</ele>
        <time>2012-07-16T09:13:23Z</time>
      </trkpt>
      <trkpt lat="45.35823" lon="5.02937">
        <ele>290.4</ele>
        <time>2012-07-16T09:13:23Z</time>
      </trkpt>
      <trkpt lat="45.34011" lon="5.0493">
        <ele>293</ele>
        <time>2012-07-16T09:13:23Z</time>
      </trkpt>
      <trkpt lat="45.33956" lon="5.05084">
        <ele>285</ele>
        <time>2012-07-16T09:13:23Z</time>
      </trkpt>
      <trkpt lat="45.34019" lon="5.05229">
        <ele>275.4</ele>
        <time>2012-07-16T09:13:23Z</time>
      </trkpt>
      <trkpt lat="45.33857" lon="5.05352">
        <ele>262.2</ele>
        <time>2012-07-16T09:13:23Z</time>
      </trkpt>
      <trkpt lat="45.33874" lon="5.05524">
        <ele>259</ele>
        <time>2012-07-16T09:13:23Z</time>
      </trkpt>
      <trkpt lat="45.33148" lon="5.05711">
        <ele>257</ele>
        <time>2012-07-16T09:13:23Z</time>
      </trkpt>
      <trkpt lat="45.32393" lon="5.05406">
        <ele>270.9</ele>
        <time>2012-07-16T09:13:23Z</time>
      </trkpt>
      <trkpt lat="45.3037" lon="5.04478">
        <ele>275</ele>
        <time>2012-07-16T09:13:23Z</time>
      </trkpt>
      <trkpt lat="45.30085" lon="5.04028">
        <ele>279</ele>
        <time>2012-07-16T09:13:23Z</time>
      </trkpt>
      <trkpt lat="45.29787" lon="5.03941">
        <ele>286.7</ele>
        <time>2012-07-16T09:13:23Z</time>
      </trkpt>
      <trkpt lat="45.29169" lon="5.04278">
        <ele>307.9</ele>
        <time>2012-07-16T09:13:23Z</time>
      </trkpt>
      <trkpt lat="45.2893" lon="5.04319">
        <ele>323.3</ele>
        <time>2012-07-16T09:13:23Z</time>
      </trkpt>
      <trkpt lat="45.28752" lon="5.0436">
        <ele>348.9</ele>
        <time>2012-07-16T09:13:23Z</time>
      </trkpt>
      <trkpt lat="45.28743" lon="5.04291">
        <ele>347.5</ele>
        <time>2012-07-16T09:13:23Z</time>
      </trkpt>
      <trkpt lat="45.28845" lon="5.04245">
        <ele>342.2</ele>
        <time>2012-07-16T09:13:23Z</time>
      </trkpt>
      <trkpt lat="45.28974" lon="5.04034">
        <ele>350.5</ele>
        <time>2012-07-16T09:13:23Z</time>
      </trkpt>
      <trkpt lat="45.28896" lon="5.03794">
        <ele>357.7</ele>
        <time>2012-07-16T09:13:23Z</time>
      </trkpt>
      <trkpt lat="45.28498" lon="5.03914">
        <ele>388.8</ele>
        <time>2012-07-16T09:13:23Z</time>
      </trkpt>
      <trkpt lat="45.28627" lon="5.03619">
        <ele>387.3</ele>
        <time>2012-07-16T09:13:23Z</time>
      </trkpt>
      <trkpt lat="45.2826" lon="5.03459">
        <ele>420.6</ele>
        <time>2012-07-16T09:13:23Z</time>
      </trkpt>
      <trkpt lat="45.2741" lon="5.03505">
        <ele>427.4</ele>
        <time>2012-07-16T09:13:23Z</time>
      </trkpt>
      <trkpt lat="45.26538" lon="5.02896">
        <ele>365.7</ele>
        <time>2012-07-16T09:13:23Z</time>
      </trkpt>
      <trkpt lat="45.26105" lon="5.02868">
        <ele>337.6</ele>
        <time>2012-07-16T09:13:23Z</time>
      </trkpt>
      <trkpt lat="45.25718" lon="5.02785">
        <ele>311.8</ele>
        <time>2012-07-16T09:13:23Z</time>
      </trkpt>
      <trkpt lat="45.25471" lon="5.02454">
        <ele>298</ele>
        <time>2012-07-16T09:13:23Z</time>
      </trkpt>
      <trkpt lat="45.25065" lon="5.02851">
        <ele>298.8</ele>
        <time>2012-07-16T09:13:23Z</time>
      </trkpt>
      <trkpt lat="45.2485" lon="5.0254">
        <ele>311.3</ele>
        <time>2012-07-16T09:13:23Z</time>
      </trkpt>
      <trkpt lat="45.24827" lon="5.02883">
        <ele>331.4</ele>
        <time>2012-07-16T09:13:23Z</time>
      </trkpt>
      <trkpt lat="45.24648" lon="5.03026">
        <ele>347.3</ele>
        <time>2012-07-16T09:13:23Z</time>
      </trkpt>
      <trkpt lat="45.24342" lon="5.0327">
        <ele>366.1</ele>
        <time>2012-07-16T09:13:23Z</time>
      </trkpt>
      <trkpt lat="45.2376" lon="5.03238">
        <ele>388.4</ele>
        <time>2012-07-16T09:13:23Z</time>
      </trkpt>
      <trkpt lat="45.23172" lon="5.02752">
        <ele>432.1</ele>
        <time>2012-07-16T09:13:23Z</time>
      </trkpt>
      <trkpt lat="45.22595" lon="5.02598">
        <ele>462.7</ele>
        <time>2012-07-16T09:13:23Z</time>
      </trkpt>
      <trkpt lat="45.22086" lon="5.02934">
        <ele>477.8</ele>
        <time>2012-07-16T09:13:23Z</time>
      </trkpt>
      <trkpt lat="45.21487" lon="5.03159">
        <ele>476.5</ele>
        <time>2012-07-16T09:13:23Z</time>
      </trkpt>
      <trkpt lat="45.20872" lon="5.03142">
        <ele>452.4</ele>
        <time>2012-07-16T09:13:23Z</time>
      </trkpt>
      <trkpt lat="45.20872" lon="5.03156">
        <ele>450.5</ele>
        <time>2012-07-16T09:13:23Z</time>
      </trkpt>
      <trkpt lat="45.20881" lon="5.03548">
        <ele>430.4</ele>
        <time>2012-07-16T09:13:23Z</time>
      </trkpt>
      <trkpt lat="45.20439" lon="5.03588">
        <ele>422</ele>
        <time>2012-07-16T09:13:23Z</time>
      </trkpt>
      <trkpt lat="45.20005" lon="5.04022">
        <ele>400.4</ele>
        <time>2012-07-16T09:13:23Z</time>
      </trkpt>
      <trkpt lat="45.20013" lon="5.04285">
        <ele>384.6</ele>
        <time>2012-07-16T09:13:23Z</time>
      </trkpt>
      <trkpt lat="45.19752" lon="5.04044">
        <ele>370.1</ele>
        <time>2012-07-16T09:13:23Z</time>
      </trkpt>
      <trkpt lat="45.19633" lon="5.04047">
        <ele>363.1</ele>
        <time>2012-07-16T09:13:23Z</time>
      </trkpt>
      <trkpt lat="45.1956" lon="5.04488">
        <ele>343.9</ele>
        <time>2012-07-16T09:13:23Z</time>
      </trkpt>
      <trkpt lat="45.19373" lon="5.04459">
        <ele>334.9</ele>
        <time>2012-07-16T09:13:23Z</time>
      </trkpt>
      <trkpt lat="45.19162" lon="5.04853">
        <ele>318.9</ele>
        <time>2012-07-16T09:13:23Z</time>
      </trkpt>
      <trkpt lat="45.18998" lon="5.04583">
        <ele>308.6</ele>
        <time>2012-07-16T09:13:23Z</time>
      </trkpt>
      <trkpt lat="45.18995" lon="5.04592">
        <ele>308.3</ele>
        <time>2012-07-16T09:13:23Z</time>
      </trkpt>
      <trkpt lat="45.1877" lon="5.04681">
        <ele>300.9</ele>
        <time>2012-07-16T09:13:23Z</time>
      </trkpt>
      <trkpt lat="45.16557" lon="5.03764">
        <ele>271.6</ele>
        <time>2012-07-16T09:13:23Z</time>
      </trkpt>
      <trkpt lat="45.16209" lon="5.03822">
        <ele>265.3</ele>
        <time>2012-07-16T09:13:23Z</time>
      </trkpt>
      <trkpt lat="45.16029" lon="5.04017">
        <ele>262</ele>
        <time>2012-07-16T09:13:23Z</time>
      </trkpt>
      <trkpt lat="45.15368" lon="5.04017">
        <ele>267.1</ele>
        <time>2012-07-16T09:13:23Z</time>
      </trkpt>
      <trkpt lat="45.14862" lon="5.0367">
        <ele>283.2</ele>
        <time>2012-07-16T09:13:23Z</time>
      </trkpt>
      <trkpt lat="45.14407" lon="5.0393">
        <ele>289.2</ele>
        <time>2012-07-16T09:13:23Z</time>
      </trkpt>
      <trkpt lat="45.13518" lon="5.04536">
        <ele>279.2</ele>
        <time>2012-07-16T09:13:23Z</time>
      </trkpt>
      <trkpt lat="45.11855" lon="5.04786">
        <ele>287.8</ele>
        <time>2012-07-16T09:13:23Z</time>
      </trkpt>
      <trkpt lat="45.11514" lon="5.04558">
        <ele>278.4</ele>
        <time>2012-07-16T09:13:23Z</time>
      </trkpt>
      <trkpt lat="45.10986" lon="5.04689">
        <ele>250</ele>
        <time>2012-07-16T09:13:23Z</time>
      </trkpt>
      <trkpt lat="45.10176" lon="5.04274">
        <ele>218.5</ele>
        <time>2012-07-16T09:13:23Z</time>
      </trkpt>
      <trkpt lat="45.0932" lon="5.04796">
        <ele>202.2</ele>
        <time>2012-07-16T09:13:23Z</time>
      </trkpt>
      <trkpt lat="45.07417" lon="5.04894">
        <ele>189.4</ele>
        <time>2012-07-16T09:13:23Z</time>
      </trkpt>
      <trkpt lat="45.07063" lon="5.051">
        <ele>177</ele>
        <time>2012-07-16T09:13:23Z</time>
      </trkpt>
      <trkpt lat="45.0645" lon="5.05261">
        <ele>170</ele>
        <time>2012-07-16T09:13:23Z</time>
      </trkpt>
      <trkpt lat="45.05905" lon="5.05007">
        <ele>168</ele>
        <time>2012-07-16T09:13:23Z</time>
      </trkpt>
      <trkpt lat="45.05031" lon="5.0475">
        <ele>167</ele>
        <time>2012-07-16T09:13:23Z</time>
      </trkpt>
      <trkpt lat="45.04893" lon="5.0476">
        <ele>165.2</ele>
        <time>2012-07-16T09:13:23Z</time>
      </trkpt>
      <trkpt lat="45.04535" lon="5.04635">
        <ele>163</ele>
        <time>2012-07-16T09:13:23Z</time>
      </trkpt>
      <trkpt lat="45.04436" lon="5.04638">
        <ele>162.3</ele>
        <time>2012-07-16T09:13:23Z</time>
      </trkpt>
      <trkpt lat="45.04413" lon="5.04571">
        <ele>160.9</ele>
        <time>2012-07-16T09:13:23Z</time>
      </trkpt>
      <trkpt lat="45.04334" lon="5.04606">
        <ele>151.1</ele>
        <time>2012-07-16T09:13:23Z</time>
      </trkpt>
      <trkpt lat="45.0427" lon="5.04682">
        <ele>144.1</ele>
        <time>2012-07-16T09:13:23Z</time>
      </trkpt>
      <trkpt lat="45.04249" lon="5.04864">
        <ele>143</ele>
        <time>2012-07-16T09:13:23Z</time>
      </trkpt>
      <trkpt lat="45.04118" lon="5.04855">
        <ele>139.5</ele>
        <time>2012-07-16T09:13:23Z</time>
      </trkpt>
      <trkpt lat="45.04078" lon="5.04625">
        <ele>140.2</ele>
        <time>2012-07-16T09:13:23Z</time>
      </trkpt>
      <trkpt lat="45.03993" lon="5.0445">
        <ele>140.3</ele>
        <time>2012-07-16T09:13:23Z</time>
      </trkpt>
      <trkpt lat="45.03922" lon="5.0439">
        <ele>140</ele>
        <time>2012-07-16T09:13:23Z</time>
      </trkpt>
      <trkpt lat="45.03764" lon="5.04343">
        <ele>138.7</ele>
        <time>2012-07-16T09:13:23Z</time>
      </trkpt>
      <trkpt lat="45.03517" lon="5.04486">
        <ele>138.1</ele>
        <time>2012-07-16T09:13:23Z</time>
      </trkpt>
      <trkpt lat="45.03345" lon="5.04576">
        <ele>140.8</ele>
        <time>2012-07-16T09:13:23Z</time>
      </trkpt>
      <trkpt lat="45.03351" lon="5.04653">
        <ele>146.3</ele>
        <time>2012-07-16T09:13:23Z</time>
      </trkpt>
      <trkpt lat="45.03131" lon="5.04757">
        <ele>148.1</ele>
        <time>2012-07-16T09:13:23Z</time>
      </trkpt>
      <trkpt lat="45.02893" lon="5.04714">
        <ele>155.8</ele>
        <time>2012-07-16T09:13:23Z</time>
      </trkpt>
      <trkpt lat="45.02694" lon="5.04483">
        <ele>169.5</ele>
        <time>2012-07-16T09:13:23Z</time>
      </trkpt>
      <trkpt lat="45.01968" lon="5.03308">
        <ele>182.2</ele>
        <time>2012-07-16T09:13:23Z</time>
      </trkpt>
      <trkpt lat="45.01677" lon="5.02833">
        <ele>181</ele>
        <time>2012-07-16T09:13:23Z</time>
      </trkpt>
      <trkpt lat="45.01333" lon="5.02275">
        <ele>179</ele>
        <time>2012-07-16T09:13:23Z</time>
      </trkpt>
      <trkpt lat="45.01168" lon="5.01992">
        <ele>174.4</ele>
        <time>2012-07-16T09:13:23Z</time>
      </trkpt>
      <trkpt lat="45.00142" lon="5.0036">
        <ele>174</ele>
        <time>2012-07-16T09:13:23Z</time>
      </trkpt>
      <trkpt lat="45.00074" lon="5.00016">
        <ele>174.7</ele>
        <time>2012-07-16T09:13:23Z</time>
      </trkpt>
      <trkpt lat="44.99958" lon="4.99706">
        <ele>173.3</ele>
        <time>2012-07-16T09:13:23Z</time>
      </trkpt>
      <trkpt lat="44.99984" lon="4.99617">
        <ele>173.5</ele>
        <time>2012-07-16T09:13:23Z</time>
      </trkpt>
      <trkpt lat="44.99708" lon="4.99282">
        <ele>171</ele>
        <time>2012-07-16T09:13:23Z</time>
      </trkpt>
      <trkpt lat="44.99818" lon="4.99124">
        <ele>171</ele>
        <time>2012-07-16T09:13:23Z</time>
      </trkpt>
      <trkpt lat="44.99603" lon="4.98768">
        <ele>170.3</ele>
        <time>2012-07-16T09:13:23Z</time>
      </trkpt>
      <trkpt lat="44.99428" lon="4.9896">
        <ele>171.7</ele>
        <time>2012-07-16T09:13:23Z</time>
      </trkpt>
      <trkpt lat="44.99291" lon="4.98789">
        <ele>171.8</ele>
        <time>2012-07-16T09:13:23Z</time>
      </trkpt>
      <trkpt lat="44.99221" lon="4.98679">
        <ele>171.4</ele>
        <time>2012-07-16T09:13:23Z</time>
      </trkpt>
      <trkpt lat="44.99153" lon="4.98747">
        <ele>170.5</ele>
        <time>2012-07-16T09:13:23Z</time>
      </trkpt>
      <trkpt lat="44.98792" lon="4.98195">
        <ele>170.5</ele>
        <time>2012-07-16T09:13:23Z</time>
      </trkpt>
      <trkpt lat="44.98866" lon="4.98069">
        <ele>169.4</ele>
        <time>2012-07-16T09:13:23Z</time>
      </trkpt>
      <trkpt lat="44.9884" lon="4.9779">
        <ele>169.8</ele>
        <time>2012-07-16T09:13:23Z</time>
      </trkpt>
      <trkpt lat="44.98615" lon="4.9768">
        <ele>167.9</ele>
        <time>2012-07-16T09:13:23Z</time>
      </trkpt>
      <trkpt lat="44.98396" lon="4.97911">
        <ele>167.6</ele>
        <time>2012-07-16T09:13:23Z</time>
      </trkpt>
      <trkpt lat="44.98278" lon="4.97911">
        <ele>167</ele>
        <time>2012-07-16T09:13:23Z</time>
      </trkpt>
      <trkpt lat="44.98211" lon="4.97988">
        <ele>165.2</ele>
        <time>2012-07-16T09:13:23Z</time>
      </trkpt>
      <trkpt lat="44.97689" lon="4.98079">
        <ele>167.8</ele>
        <time>2012-07-16T09:13:23Z</time>
      </trkpt>
      <trkpt lat="44.97075" lon="4.9821">
        <ele>167.9</ele>
        <time>2012-07-16T09:13:23Z</time>
      </trkpt>
      <trkpt lat="44.9691" lon="4.98045">
        <ele>166.7</ele>
        <time>2012-07-16T09:13:23Z</time>
      </trkpt>
      <trkpt lat="44.965" lon="4.97359">
        <ele>163.9</ele>
        <time>2012-07-16T09:13:23Z</time>
      </trkpt>
      <trkpt lat="44.96294" lon="4.9689">
        <ele>162</ele>
        <time>2012-07-16T09:13:23Z</time>
      </trkpt>
      <trkpt lat="44.95868" lon="4.96421">
        <ele>161.9</ele>
        <time>2012-07-16T09:13:23Z</time>
      </trkpt>
      <trkpt lat="44.95707" lon="4.95991">
        <ele>159.2</ele>
        <time>2012-07-16T09:13:23Z</time>
      </trkpt>
      <trkpt lat="44.95536" lon="4.95686">
        <ele>157.9</ele>
        <time>2012-07-16T09:13:23Z</time>
      </trkpt>
      <trkpt lat="44.95317" lon="4.94833">
        <ele>157.6</ele>
        <time>2012-07-16T09:13:23Z</time>
      </trkpt>
      <trkpt lat="44.95248" lon="4.94665">
        <ele>157.9</ele>
        <time>2012-07-16T09:13:23Z</time>
      </trkpt>
      <trkpt lat="44.95173" lon="4.94145">
        <ele>154.2</ele>
        <time>2012-07-16T09:13:23Z</time>
      </trkpt>
      <trkpt lat="44.9468" lon="4.93342">
        <ele>155.2</ele>
        <time>2012-07-16T09:13:23Z</time>
      </trkpt>
      <trkpt lat="44.94505" lon="4.93134">
        <ele>154.9</ele>
        <time>2012-07-16T09:13:23Z</time>
      </trkpt>
      <trkpt lat="44.94309" lon="4.92319">
        <ele>154.1</ele>
        <time>2012-07-16T09:13:23Z</time>
      </trkpt>
      <trkpt lat="44.94266" lon="4.92064">
        <ele>153.6</ele>
        <time>2012-07-16T09:13:23Z</time>
      </trkpt>
      <trkpt lat="44.94136" lon="4.92082">
        <ele>153</ele>
        <time>2012-07-16T09:13:23Z</time>
      </trkpt>
      <trkpt lat="44.94104" lon="4.91844">
        <ele>153</ele>
        <time>2012-07-16T09:13:23Z</time>
      </trkpt>
      <trkpt lat="44.9388" lon="4.91888">
        <ele>151</ele>
        <time>2012-07-16T09:13:23Z</time>
      </trkpt>
      <trkpt lat="44.93835" lon="4.91752">
        <ele>151.9</ele>
        <time>2012-07-16T09:13:23Z</time>
      </trkpt>
      <trkpt lat="44.93661" lon="4.9181">
        <ele>151</ele>
        <time>2012-07-16T09:13:23Z</time>
      </trkpt>
      <trkpt lat="44.93546" lon="4.90954">
        <ele>135.4</ele>
        <time>2012-07-16T09:13:23Z</time>
      </trkpt>
      <trkpt lat="44.93234" lon="4.89744">
        <ele>126</ele>
        <time>2012-07-16T09:13:23Z</time>
      </trkpt>
      <trkpt lat="44.93248" lon="4.89557">
        <ele>127</ele>
        <time>2012-07-16T09:13:23Z</time>
      </trkpt>
      <trkpt lat="44.93036" lon="4.89459">
        <ele>127.2</ele>
        <time>2012-07-16T09:13:23Z</time>
      </trkpt>
      <trkpt lat="44.93056" lon="4.88851">
        <ele>117.7</ele>
        <time>2012-07-16T09:13:23Z</time>
      </trkpt>
      <trkpt lat="44.93292" lon="4.88005">
        <ele>109.5</ele>
        <time>2012-07-16T09:13:23Z</time>
      </trkpt>
      <trkpt lat="44.91745" lon="4.85798">
        <ele>111</ele>
        <time>2012-07-16T09:13:23Z</time>
      </trkpt>
      <trkpt lat="44.9096" lon="4.8539">
        <ele>110.9</ele>
        <time>2012-07-16T09:13:23Z</time>
      </trkpt>
      <trkpt lat="44.89798" lon="4.85185">
        <ele>108.4</ele>
        <time>2012-07-16T09:13:23Z</time>
      </trkpt>
      <trkpt lat="44.88292" lon="4.85073">
        <ele>107.2</ele>
        <time>2012-07-16T09:13:23Z</time>
      </trkpt>
      <trkpt lat="44.86003" lon="4.83266">
        <ele>111.5</ele>
        <time>2012-07-16T09:13:23Z</time>
      </trkpt>
      <trkpt lat="44.85137" lon="4.82727">
        <ele>110.2</ele>
        <time>2012-07-16T09:13:23Z</time>
      </trkpt>
      <trkpt lat="44.83567" lon="4.8131">
        <ele>111.8</ele>
        <time>2012-07-16T09:13:23Z</time>
      </trkpt>
      <trkpt lat="44.83347" lon="4.81386">
        <ele>100</ele>
        <time>2012-07-16T09:13:23Z</time>
      </trkpt>
      <trkpt lat="44.82437" lon="4.80823">
        <ele>99.1</ele>
        <time>2012-07-16T09:13:23Z</time>
      </trkpt>
      <trkpt lat="44.81652" lon="4.80548">
        <ele>95.6</ele>
        <time>2012-07-16T09:13:23Z</time>
      </trkpt>
      <trkpt lat="44.81396" lon="4.80443">
        <ele>96.5</ele>
        <time>2012-07-16T09:13:23Z</time>
      </trkpt>
      <trkpt lat="44.81166" lon="4.79855">
        <ele>95.6</ele>
        <time>2012-07-16T09:13:23Z</time>
      </trkpt>
      <trkpt lat="44.80474" lon="4.79053">
        <ele>96.9</ele>
        <time>2012-07-16T09:13:23Z</time>
      </trkpt>
      <trkpt lat="44.7999" lon="4.78174">
        <ele>94.7</ele>
        <time>2012-07-16T09:13:23Z</time>
      </trkpt>
      <trkpt lat="44.79094" lon="4.77479">
        <ele>95.4</ele>
        <time>2012-07-16T09:13:23Z</time>
      </trkpt>
      <trkpt lat="44.78269" lon="4.7674">
        <ele>96.1</ele>
        <time>2012-07-16T09:13:23Z</time>
      </trkpt>
      <trkpt lat="44.77879" lon="4.7627">
        <ele>98.7</ele>
        <time>2012-07-16T09:13:23Z</time>
      </trkpt>
      <trkpt lat="44.77193" lon="4.75755">
        <ele>92.8</ele>
        <time>2012-07-16T09:13:23Z</time>
      </trkpt>
      <trkpt lat="44.769" lon="4.75409">
        <ele>99.6</ele>
        <time>2012-07-16T09:13:23Z</time>
      </trkpt>
      <trkpt lat="44.76041" lon="4.75106">
        <ele>90.8</ele>
        <time>2012-07-16T09:13:23Z</time>
      </trkpt>
      <trkpt lat="44.75595" lon="4.7498">
        <ele>91.3</ele>
        <time>2012-07-16T09:13:23Z</time>
      </trkpt>
      <trkpt lat="44.74768" lon="4.74607">
        <ele>89.1</ele>
        <time>2012-07-16T09:13:23Z</time>
      </trkpt>
      <trkpt lat="44.74016" lon="4.74223">
        <ele>90</ele>
        <time>2012-07-16T09:13:23Z</time>
      </trkpt>
      <trkpt lat="44.73272" lon="4.73967">
        <ele>98.1</ele>
        <time>2012-07-16T09:13:23Z</time>
      </trkpt>
      <trkpt lat="44.72893" lon="4.74078">
        <ele>96</ele>
        <time>2012-07-16T09:13:23Z</time>
      </trkpt>
      <trkpt lat="44.72096" lon="4.74909">
        <ele>96.2</ele>
        <time>2012-07-16T09:13:23Z</time>
      </trkpt>
      <trkpt lat="44.71366" lon="4.76239">
        <ele>87.4</ele>
        <time>2012-07-16T09:13:23Z</time>
      </trkpt>
      <trkpt lat="44.70943" lon="4.76625">
        <ele>88.5</ele>
        <time>2012-07-16T09:13:23Z</time>
      </trkpt>
      <trkpt lat="44.70794" lon="4.76482">
        <ele>100.5</ele>
        <time>2012-07-16T09:13:23Z</time>
      </trkpt>
      <trkpt lat="44.70001" lon="4.7668">
        <ele>91.5</ele>
        <time>2012-07-16T09:13:23Z</time>
      </trkpt>
      <trkpt lat="44.69284" lon="4.7717">
        <ele>89</ele>
        <time>2012-07-16T09:13:23Z</time>
      </trkpt>
      <trkpt lat="44.68173" lon="4.77171">
        <ele>89.1</ele>
        <time>2012-07-16T09:13:23Z</time>
      </trkpt>
      <trkpt lat="44.67099" lon="4.76975">
        <ele>84.1</ele>
        <time>2012-07-16T09:13:23Z</time>
      </trkpt>
      <trkpt lat="44.66276" lon="4.7651">
        <ele>84.3</ele>
        <time>2012-07-16T09:13:23Z</time>
      </trkpt>
      <trkpt lat="44.65913" lon="4.76299">
        <ele>88.2</ele>
        <time>2012-07-16T09:13:23Z</time>
      </trkpt>
      <trkpt lat="44.6571" lon="4.76261">
        <ele>90.4</ele>
        <time>2012-07-16T09:13:23Z</time>
      </trkpt>
      <trkpt lat="44.65436" lon="4.76187">
        <ele>83</ele>
        <time>2012-07-16T09:13:23Z</time>
      </trkpt>
      <trkpt lat="44.6507" lon="4.75838">
        <ele>83.6</ele>
        <time>2012-07-16T09:13:23Z</time>
      </trkpt>
      <trkpt lat="44.64874" lon="4.7563">
        <ele>90.3</ele>
        <time>2012-07-16T09:13:23Z</time>
      </trkpt>
      <trkpt lat="44.6467" lon="4.75587">
        <ele>81.8</ele>
        <time>2012-07-16T09:13:23Z</time>
      </trkpt>
      <trkpt lat="44.64532" lon="4.75392">
        <ele>80.2</ele>
        <time>2012-07-16T09:13:23Z</time>
      </trkpt>
      <trkpt lat="44.64228" lon="4.75119">
        <ele>79</ele>
        <time>2012-07-16T09:13:23Z</time>
      </trkpt>
      <trkpt lat="44.639" lon="4.74881">
        <ele>77.2</ele>
        <time>2012-07-16T09:13:23Z</time>
      </trkpt>
      <trkpt lat="44.63458" lon="4.74582">
        <ele>78.1</ele>
        <time>2012-07-16T09:13:23Z</time>
      </trkpt>
      <trkpt lat="44.6328" lon="4.74477">
        <ele>78.7</ele>
        <time>2012-07-16T09:13:23Z</time>
      </trkpt>
      <trkpt lat="44.62997" lon="4.74329">
        <ele>79.5</ele>
        <time>2012-07-16T09:13:23Z</time>
      </trkpt>
      <trkpt lat="44.62524" lon="4.7414">
        <ele>78.2</ele>
        <time>2012-07-16T09:13:23Z</time>
      </trkpt>
      <trkpt lat="44.61944" lon="4.73638">
        <ele>80</ele>
        <time>2012-07-16T09:13:23Z</time>
      </trkpt>
      <trkpt lat="44.61375" lon="4.73001">
        <ele>80</ele>
        <time>2012-07-16T09:13:23Z</time>
      </trkpt>
      <trkpt lat="44.6042" lon="4.71931">
        <ele>80</ele>
        <time>2012-07-16T09:13:23Z</time>
      </trkpt>
      <trkpt lat="44.59029" lon="4.70833">
        <ele>72.1</ele>
        <time>2012-07-16T09:13:23Z</time>
      </trkpt>
      <trkpt lat="44.58332" lon="4.69883">
        <ele>86</ele>
        <time>2012-07-16T09:13:23Z</time>
      </trkpt>
      <trkpt lat="44.58019" lon="4.70329">
        <ele>72.5</ele>
        <time>2012-07-16T09:13:23Z</time>
      </trkpt>
      <trkpt lat="44.57578" lon="4.72032">
        <ele>77.7</ele>
        <time>2012-07-16T09:13:23Z</time>
      </trkpt>
      <trkpt lat="44.56618" lon="4.73549">
        <ele>75.9</ele>
        <time>2012-07-16T09:13:23Z</time>
      </trkpt>
      <trkpt lat="44.56367" lon="4.73941">
        <ele>76.1</ele>
        <time>2012-07-16T09:13:23Z</time>
      </trkpt>
      <trkpt lat="44.56032" lon="4.74821">
        <ele>80</ele>
        <time>2012-07-16T09:13:23Z</time>
      </trkpt>
    </trkseg>
  </trk>
</gpx>